277  
ASUS43 KFSD 221810  
RWRSD  
 
WEATHER ROUNDUP FOR SOUTH DAKOTA  
NATIONAL WEATHER SERVICE SIOUX FALLS SD  
100 PM CDT MON JUL 22 2019  
 
NOTE: "FAIR" INDICATES FEW OR NO CLOUDS BELOW 12,000 FEET WITH NO  
SIGNIFICANT WEATHER AND/OR S TO VISIBILITY
.  
 
 
SDZ001>005-009-010-012>017-221900-  
NORTHWEST AND NORTH CENTRAL SOUTH DAKOTA  
 
CITY SKY/WX TMP DP RH WIND PRES REMARKS
 
BUFFALO N/A 76 54 46 SE16 30.30F  
FAITH N/A 74 56 53 S10 30.34F  
MOBRIDGE SUNNY 78 56 46 CALM 30.30F  

 
 
SDZ012>016-024>037-041>051-057-063-072>074-221900-  
SOUTHWEST AND SOUTH CENTRAL SOUTH DAKOTA  
 
CITY SKY/WX TMP DP RH WIND PRES REMARKS
 
RAPID CTY ARPT SUNNY 73 56 54 S15G21 30.34F  
PIERRE MOSUNNY 73 59 61 S8 30.32S  
CUSTER SUNNY 66 52 60 SE8 30.43S  
ELLSWORTH AFB SUNNY 75 57 54 S16G22 30.34S  
PHILIP SUNNY 76 55 48 VRB6 30.33F  
PINE RIDGE SUNNY 78 54 43 S12G20 30.35F  
SPEARFISH FAIR 73 59 60 E10G18 30.33F  
WINNER FAIR 77 53 43 E5 30.35F  

 
 
SDZ004>011-016>023-039-040-221900-  
NORTHEAST SOUTH DAKOTA  
 
CITY SKY/WX TMP DP RH WIND PRES REMARKS
 
ABERDEEN MOSUNNY 74 54 49 VRB6 30.33F  
WATERTOWN MOSUNNY 73 54 51 N10G16 30.32F  
BROOKINGS SUNNY 71 51 49 NE9 30.33S  
SISSETON N/A 72 52 49 MISG 30.31S  

 
 
SDZ017-020-022-023-036>040-048>070-221900-  
SOUTHEAST SOUTH DAKOTA  
 
CITY SKY/WX TMP DP RH WIND PRES REMARKS
 
SIOUX FALLS MOSUNNY 76 55 48 NE12 30.31F  
HURON MOSUNNY 75 59 57 NE6 30.32F  
CHAMBERLAIN MOSUNNY 76 61 60 NW6 30.34F  
MADISON FAIR 70 57 64 N8 30.34S  
MITCHELL FAIR 75 58 55 NE9 30.33S  
YANKTON MOSUNNY 76 57 51 N12 30.31F  

 
 
ABBREVIATIONS USED IN REMARKS  
TC - TEMPERATURE IN CELSIUS  
WCI - WIND CHILL INDEX  
HX - HEAT INDEX  
VSB - VISIBILITY  
 
 
 
CLICK HERE TO GO TO PREVIOUS BULLETINS.

The Nexlab SD Page Main Text Page